Location: La Brionne
(46.1728°N, 1.7849°E)
Time: 02:12:47
(UTC+00:00)

Cosmos 2219 Rocket - Pass Details

Date: 28 October 2021
Orbit: 827 x 848 km, 71.0° (Epoch: 26 November)

Event Time Altitude Azimuth Distance (km) Brightness Sun altitude
Exits shadow 05:40:55 - 312° (NW) 2,820 4.4 -8.8°
Reaches altitude 10° 05:42:11 10° 303° (WNW) 2,469 4.1 -8.5°
Maximum altitude 05:46:00 19° 261° (W) 1,914 3.5 -7.9°
Drops below altitude 10° 05:49:50 10° 218° (SW) 2,464 4.4 -7.2°
Sets 05:52:57 0° 201° (SSW) 3,395 5.3 -6.7°
